This demonstration page uses our WeatherBlox Daily Observations layout. Learn more.

Hourly Observations for September 24, 2018

Temp ( °F °C ) Dew Point ( °F °C ) Humidity (%) Winds ( mph kmh ) Pressure ( in mb ) Visibility ( mi km ) Precip ( " mm )
12:15 am 00:15 Clear 63 17 57 14.1 83 83 S 14 22 29.83 1010 10 16.09344 0 0
12:35 am 00:35 Clear 62 16.6 57 14 85 85 S 12 19 29.83 1010 10 16.09344 0 0
12:55 am 00:55 Clear 62 16.4 57 14 86 86 S 13 20 29.83 1010 10 16.09344 0 0
1:15 am 01:15 Clear 61 16 57 14 88 88 S 13 20 29.83 1010 10 16.09344 0 0
1:35 am 01:35 Clear 60 15.8 57 14 89 89 S 13 20 29.83 1010 10 16.09344 0 0
1:55 am 01:55 Clear 60 15.8 57 13.8 88 88 S 12 19 29.8 1009 10 16.09344 0 0
2:15 am 02:15 Clear 61 15.9 56 13.6 86 86 S 12 19 29.8 1009 10 16.09344 0 0
2:35 am 02:35 Clear 61 16.2 57 13.7 85 85 S 13 20 29.8 1009 10 16.09344 0 0
2:55 am 02:55 Clear 61 16 56 13.5 85 85 S 14 22 29.8 1009 10 16.09344 0 0
3:15 am 03:15 Clear 60 15.8 57 13.7 87 87 S 14 22 29.8 1009 10 16.09344 0 0
3:35 am 03:35 Clear 60 15.5 57 14 91 91 S 14 22 29.77 1008 10 16.09344 0 0
3:55 am 03:55 Clear 60 15.3 57 14 92 92 SSE 14 22 29.77 1008 10 16.09344 0 0
4:15 am 04:15 Clear 59 15 57 14 94 94 SSE 15 24 29.77 1008 10 16.09344 0 0
4:35 am 04:35 Clear 59 14.8 57 14 95 95 S 14 22 29.77 1008 10 16.09344 0 0
4:55 am 04:55 Clear 59 14.8 57 14.1 96 96 S 13 20 29.77 1008 10 16.09344 0 0
5:15 am 05:15 Clear 58 14.7 57 14.1 96 96 SSE 15 24 29.77 1008 10 16.09344 0 0
5:35 am 05:35 Clear 58 14.5 57 14 97 97 SSE 13 20 29.77 1008 10 16.09344 0 0
5:55 am 05:55 Clear 58 14.5 57 14.1 97 97 SSE 14 22 29.77 1008 10 16.09344 0 0
6:15 am 06:15 Partly Cloudy 58 14.2 57 14 99 99 S 12 19 29.77 1008 10 16.09344 0 0
6:35 am 06:35 Mostly Cloudy 57 14.1 57 14 99 99 S 13 20 29.8 1009 10 16.09344 0 0
6:55 am 06:55 Cloudy 58 14.4 58 14.4 100 100 S 16 26 29.77 1008 7 11.265408 0 0
7:15 am 07:15 Cloudy with Mist and Fog 58 14.5 58 14.5 100 100 S 16 26 29.77 1008 5 8.04672 0 0
7:35 am 07:35 Cloudy with Mist and Fog 58 14.5 58 14.5 100 100 SSE 17 28 29.77 1008 5 8.04672 0 0
7:55 am 07:55 Cloudy with Mist and Fog 58 14.5 58 14.5 100 100 S 16 26 29.77 1008 5 8.04672 0 0
8:15 am 08:15 Cloudy 58 14.5 58 14.5 100 100 S 9 15 29.77 1008 7 11.265408 0 0
8:35 am 08:35 Cloudy 59 15 58 14.6 97 97 S 8 13 29.8 1009 7 11.265408 0 0
8:55 am 08:55 Cloudy 60 15.5 59 15 97 97 SW 8 13 29.83 1010 10 16.09344 0 0
9:15 am 09:15 Cloudy 60 15.8 59 15 95 95 SSW 9 15 29.83 1010 10 16.09344 0 0
9:35 am 09:35 Cloudy 61 16 58 14.7 92 92 S 12 19 29.8 1009 10 16.09344 0 0
9:55 am 09:55 Cloudy 62 16.5 58 14.7 89 89 S 13 20 29.8 1009 10 16.09344 0 0
10:15 am 10:15 Cloudy 64 17.5 59 14.9 85 85 SSW 10 17 29.8 1009 10 16.09344 0 0
10:35 am 10:35 Cloudy 65 18.1 58 14.6 80 80 S 12 19 29.77 1008 10 16.09344 0 0
10:55 am 10:55 Mostly Cloudy 65 18.6 59 15 80 80 SSW 7 11 29.8 1009 10 16.09344 0 0
11:15 am 11:15 Cloudy 65 18.3 58 14.7 80 80 SW 6 9 29.8 1009 10 16.09344 0 0
11:35 am 11:35 Cloudy 65 18.2 58 14.3 78 78 Calm 29.83 1010 10 16.09344 0 0
11:55 am 11:55 Cloudy 65 18.4 58 14.2 77 77 NW 8 13 29.85 1011 10 16.09344 0 0
12:15 pm 12:15 Cloudy 65 18.5 58 14.2 76 76 NNW 9 15 29.85 1011 10 16.09344 0 0
12:35 pm 12:35 Cloudy 63 17.3 57 13.7 80 80 N 12 19 29.85 1011 10 16.09344 0 0
12:55 pm 12:55 Cloudy 62 16.6 55 13 79 79 N 14 22 29.85 1011 10 16.09344 0 0
1:15 pm 13:15 Cloudy 65 18.1 56 13.5 75 75 N 14 22 29.85 1011 10 16.09344 0 0
1:35 pm 13:35 Mostly Cloudy 66 19 56 13.5 71 71 N 13 20 29.8 1009 10 16.09344 0 0
1:55 pm 13:55 Partly Cloudy 67 19.3 56 13.4 69 69 NE 10 17 29.8 1009 10 16.09344 0 0
2:15 pm 14:15 Sunny 68 20.1 56 13.1 64 64 NE 6 9 29.8 1009 10 16.09344 0 0
2:35 pm 14:35 Sunny 69 20.6 55 13 62 62 NE 7 11 29.77 1008 10 16.09344 0 0
2:55 pm 14:55 Sunny 70 21 53 11.9 56 56 E 5 7 29.77 1008 10 16.09344 0 0
3:15 pm 15:15 Sunny 70 21.3 53 11.5 54 54 E 6 9 29.71 1006 10 16.09344 0 0
3:35 pm 15:35 Sunny 69 20.8 54 12.3 58 58 ESE 6 9 29.74 1007 10 16.09344 0 0
3:55 pm 15:55 Sunny 72 22.3 56 13.2 56 56 SE 12 19 29.68 1005 10 16.09344 0 0
4:15 pm 16:15 Sunny 72 22.3 56 13.3 57 57 SE 5 7 29.71 1006 10 16.09344 0 0
4:35 pm 16:35 Sunny 72 22 56 13.1 57 57 ESE 6 9 29.71 1006 10 16.09344 0 0
4:55 pm 16:55 Sunny 72 22.2 56 13.3 57 57 SSE 3 6 29.71 1006 10 16.09344 0 0
5:15 pm 17:15 Sunny 73 22.7 56 13.2 55 55 Calm 29.71 1006 10 16.09344 0 0
5:35 pm 17:35 Sunny 71 21.8 56 13.3 59 59 NNW 3 6 29.71 1006 10 16.09344 0 0
5:55 pm 17:55 Sunny 73 22.5 55 13 55 55 Calm 29.71 1006 10 16.09344 0 0
6:15 pm 18:15 Sunny 72 22.2 55 13 56 56 N 3 6 29.71 1006 10 16.09344 0 0
6:35 pm 18:35 Sunny 71 21.9 56 13.1 58 58 Calm 29.74 1007 10 16.09344 0 0
6:55 pm 18:55 Sunny 71 21.5 55 13 59 59 NNE 3 6 29.71 1006 10 16.09344 0 0
7:15 pm 19:15 Sunny 68 19.8 56 13.4 67 67 NNE 5 7 29.74 1007 10 16.09344 0 0
7:35 pm 19:35 Clear 64 17.7 56 13.2 75 75 NE 7 11 29.74 1007 10 16.09344 0 0
7:55 pm 19:55 Clear 62 16.9 56 13.1 78 78 NE 6 9 29.8 1009 10 16.09344 0 0
8:15 pm 20:15 Clear 60 15.5 56 13.1 86 86 NNE 8 13 29.8 1009 10 16.09344 0 0
8:35 pm 20:35 Clear 61 16 56 13.1 83 83 NNE 7 11 29.8 1009 10 16.09344 0 0
8:55 pm 20:55 Clear 60 15.5 56 13.1 86 86 N 6 9 29.83 1010 10 16.09344 0 0
9:15 pm 21:15 Clear 59 15 55 13 88 88 NNE 6 9 29.83 1010 10 16.09344 0 0
9:35 pm 21:35 Clear 59 15 55 12.8 87 87 NNE 7 11 29.83 1010 10 16.09344 0 0
9:55 pm 21:55 Clear 59 15 55 12.6 86 86 N 5 7 29.88 1012 10 16.09344 0 0
10:15 pm 22:15 Clear 59 14.8 55 12.7 87 87 NNE 5 7 29.88 1012 10 16.09344 0 0
10:35 pm 22:35 Clear 59 14.9 55 12.7 87 87 NNE 6 9 29.88 1012 10 16.09344 0 0
10:55 pm 22:55 Clear 59 15 55 12.9 87 87 N 8 13 29.88 1012 10 16.09344 0 0
11:15 pm 23:15 Partly Cloudy 59 15 55 13 88 88 N 8 13 29.88 1012 10 16.09344 0 0
11:35 pm 23:35 Cloudy 60 15.3 55 13 86 86 NNE 9 15 29.85 1011 10 16.09344 0 0
11:55 pm 23:55 Cloudy 59 15.2 55 13 87 87 NE 13 20 29.85 1011 10 16.09344 0 0

Powered by AerisWeather